Concord, CA

1:26 PM PDT on September 23, 2017 (GMT -0700)
Buchanan

Weather History for KCCR - April, 2014

Change the Weather History Date:

Saturday, April 12, 2014

  Actual Average Record
Temperature  
Mean Temperature 59 °F 58 °F  
Max Temperature 69 °F 69 °F 87 °F (2008)
Min Temperature 49 °F 47 °F 42 °F (1993)
Degree Days  
Heating Degree Days 6    
Month to date heating degree days 72  
Since 1 July heating degree days 2025  
Cooling Degree Days 0    
Month to date cooling degree days 4  
Year to date cooling degree days 4  
Growing Degree Days 8 (Base 50)    
Moisture  
Dew Point 47 °F    
Average Humidity 71    
Maximum Humidity 93    
Minimum Humidity 49    
Precipitation  
Precipitation 0.00 in - 0.97 in (2012)
Month to date precipitation 0.83  
Year to date precipitation 7.29  
Since 1 July precipitation 9.77  
Sea Level Pressure  
Sea Level Pressure 29.86 in    
Wind  
Wind Speed 10 mph (WSW)    
Max Wind Speed 22 mph    
Max Gust Speed 25 mph    
Visibility 10 miles    
Events      
T = Trace of Precipitation, MM = Missing Value Source: NWS Daily Summary

Daily Weather History Graph

Daily Weather History Graph

Search for Another Location

Airport or City:

Trip Planner

Search our weather history database for the weather conditions in past years. The results will help you decide how hot, cold, wet, or windy it might be!

Date:

Astronomy

Apr. 12, 2014 Rise Set
Actual Time 6:36 AM PDT 7:41 PM PDT
Civil Twilight 6:09 AM PDT 8:08 PM PDT
Nautical Twilight 5:37 AM PDT 8:40 PM PDT
Astronomical Twilight 5:04 AM PDT 9:14 PM PDT
Moon 5:27 PM PDT (4/12) 5:04 AM PDT (4/12)
Length of Visible Light 13h 58m
Length of Day
13h 04m
Waxing Gibbous, 93% of the Moon is Illuminated
Apr 12
Waxing Gibbous
Apr 15
Full
Apr 22
Last Quarter
Apr 28
New
May 6
First Quarter

Hourly Weather History & Observations

Time (PDT) Temp. Dew Point Humidity Pressure Visibility Wind Dir Wind Speed Gust Speed Precip Events Conditions
12:53 AM 51.1 °F 46.9 °F 86% 29.85 in 10.0 mi Calm Calm - N/A   Clear
1:53 AM 51.1 °F 46.9 °F 86% 29.84 in 10.0 mi WSW 5.8 mph - N/A   Clear
2:53 AM 48.9 °F 46.0 °F 90% 29.84 in 10.0 mi SW 4.6 mph - N/A   Partly Cloudy
3:09 AM 50.0 °F 46.0 °F 86% 29.88 in 10.0 mi SW 4.6 mph - N/A   Mostly Cloudy
3:53 AM 51.1 °F 46.9 °F 86% 29.84 in 10.0 mi SW 5.8 mph - N/A   Overcast
4:53 AM 51.1 °F 46.9 °F 86% 29.83 in 10.0 mi SSW 4.6 mph - N/A   Overcast
5:10 AM 51.1 °F 46.9 °F 86% 29.87 in 10.0 mi SW 5.8 mph - N/A   Scattered Clouds
5:53 AM 50.0 °F 46.0 °F 86% 29.83 in 10.0 mi WSW 3.5 mph - N/A   Clear
6:53 AM 50.0 °F 46.0 °F 86% 29.84 in 10.0 mi WSW 4.6 mph - N/A   Scattered Clouds
7:53 AM 53.1 °F 46.9 °F 80% 29.86 in 10.0 mi SSW 6.9 mph - N/A   Mostly Cloudy
8:53 AM 55.9 °F 48.0 °F 75% 29.86 in 10.0 mi West 11.5 mph - N/A   Mostly Cloudy
9:53 AM 57.9 °F 48.0 °F 70% 29.86 in 10.0 mi West 13.8 mph - N/A   Mostly Cloudy
10:53 AM 61.0 °F 48.0 °F 62% 29.87 in 10.0 mi West 13.8 mph - N/A   Partly Cloudy
11:00 AM 60.1 °F 48.0 °F 64% 29.90 in 10.0 mi West 8.1 mph - N/A   Partly Cloudy
11:53 AM 63.0 °F 48.0 °F 58% 29.86 in 10.0 mi SW 8.1 mph - N/A   Partly Cloudy
12:53 PM 64.9 °F 48.9 °F 56% 29.86 in 10.0 mi West 17.3 mph - N/A   Clear
1:53 PM 66.0 °F 48.9 °F 54% 29.84 in 10.0 mi West 11.5 mph - N/A   Clear
2:53 PM 68.0 °F 50.0 °F 52% 29.82 in 10.0 mi West 10.4 mph - N/A   Clear
3:53 PM 68.0 °F 48.0 °F 49% 29.81 in 10.0 mi West 13.8 mph - N/A   Clear
4:53 PM 64.0 °F 46.9 °F 54% 29.82 in 10.0 mi West 19.6 mph - N/A   Clear
5:53 PM 59.0 °F 46.9 °F 64% 29.83 in 10.0 mi West 16.1 mph - N/A   Clear
6:53 PM 55.9 °F 46.9 °F 72% 29.83 in 10.0 mi West 19.6 mph 24.2 mph N/A   Clear
7:53 PM 54.0 °F 48.0 °F 80% 29.85 in 10.0 mi WSW 9.2 mph - N/A   Clear
8:53 PM 54.0 °F 48.0 °F 80% 29.86 in 10.0 mi SSW 8.1 mph - N/A   Partly Cloudy
9:53 PM 54.0 °F 48.0 °F 80% 29.88 in 10.0 mi WSW 5.8 mph - N/A   Clear
10:34 PM 54.0 °F 48.0 °F 80% 29.93 in 10.0 mi WSW 8.1 mph - N/A   Mostly Cloudy
10:53 PM 54.0 °F 48.0 °F 80% 29.89 in 10.0 mi WSW 9.2 mph - N/A   Mostly Cloudy
11:53 PM 54.0 °F 48.0 °F 80% 29.89 in 10.0 mi WSW 9.2 mph - N/A   Overcast